| time (UTC) | temp F | wind direction | speed knots | gust knots | rain 1hr in | rain 24hr in | rain mn in | humidity % | barometer mb |
| 20260505191507 | 65 | 360 | 5.2 | 12.2 | 0.00 | 0.00 | 0.00 | 33 | 1012.5 |
| 20260505191012 | 65 | 360 | 4.3 | 12.2 | 0.00 | 0.00 | 0.00 | 32 | 1012.5 |
| 20260505190624 | 65 | 360 | 5.2 | 11.3 | 0.00 | 0.00 | 0.00 | 31 | 1012.7 |
| 20260505190106 | 66 | 360 | 3.5 | 8.7 | 0.00 | 0.00 | 0.00 | 31 | 1012.8 |
| 20260505185554 | 66 | 360 | 2.6 | 10.4 | 0.00 | 0.00 | 0.00 | 33 | 1012.9 |
| 20260505185051 | 65 | 360 | 1.7 | 10.4 | 0.00 | 0.00 | 0.00 | 31 | 1013.0 |
| 20260505184502 | 65 | 360 | 5.2 | 11.3 | 0.00 | 0.00 | 0.00 | 31 | 1013.0 |
| 20260505184105 | 65 | 360 | 3.5 | 11.3 | 0.00 | 0.00 | 0.00 | 31 | 1013.1 |
| 20260505183605 | 65 | 360 | 2.6 | 8.7 | 0.00 | 0.00 | 0.00 | 33 | 1013.2 |
| 20260505183051 | 65 | 360 | 2.6 | 9.6 | 0.00 | 0.00 | 0.00 | 34 | 1013.0 |
| 20260505182516 | 64 | 360 | 4.3 | 10.4 | 0.00 | 0.00 | 0.00 | 37 | 1013.1 |
| 20260505182036 | 64 | 360 | 2.6 | 10.4 | 0.00 | 0.00 | 0.00 | 39 | 1013.2 |
| 20260505181607 | 64 | 360 | 4.3 | 10.4 | 0.00 | 0.00 | 0.00 | 36 | 1013.2 |
| 20260505181124 | 65 | 360 | 4.3 | 10.4 | 0.00 | 0.00 | 0.00 | 32 | 1013.2 |
| 20260505180600 | 65 | 360 | 2.6 | 7.8 | 0.00 | 0.00 | 0.00 | 34 | 1013.3 |
| 20260505180014 | 65 | 360 | 3.5 | 7.0 | 0.00 | 0.00 | 0.00 | 37 | 1013.2 |
| 20260505175504 | 65 | 360 | 2.6 | 5.2 | 0.00 | 0.00 | 0.00 | 35 | 1013.1 |
| 20260505175025 | 65 | 360 | 0.9 | 8.7 | 0.00 | 0.00 | 0.00 | 34 | 1013.0 |
| 20260505174550 | 64 | 360 | 0.9 | 15.6 | 0.00 | 0.00 | 0.00 | 37 | 1013.2 |
| 20260505174044 | 65 | 360 | 2.6 | 15.6 | 0.00 | 0.00 | 0.00 | 38 | 1013.2 |
| 20260505173540 | 65 | 360 | 0.9 | 10.4 | 0.00 | 0.00 | 0.00 | 40 | 1013.5 |
| 20260505173101 | 65 | 360 | 1.7 | 10.4 | 0.00 | 0.00 | 0.00 | 35 | 1013.3 |
| 20260505172601 | 65 | 360 | 2.6 | 7.0 | 0.00 | 0.00 | 0.00 | 38 | 1013.5 |
| 20260505172054 | 65 | 360 | 2.6 | 7.8 | 0.00 | 0.00 | 0.00 | 36 | 1013.7 |
| 20260505171540 | 64 | 360 | 2.6 | 12.2 | 0.00 | 0.00 | 0.00 | 38 | 1013.5 |
| 20260505171003 | 65 | 360 | 5.2 | 10.4 | 0.00 | 0.00 | 0.00 | 35 | 1013.5 |
| 20260505170627 | 65 | 360 | 2.6 | 7.0 | 0.00 | 0.00 | 0.00 | 37 | 1013.8 |
| 20260505170034 | 64 | 360 | 3.5 | 7.0 | 0.00 | 0.00 | 0.00 | 37 | 1013.8 |
| 20260505165527 | 64 | 360 | 0.9 | 13.0 | 0.00 | 0.00 | 0.00 | 40 | 1013.8 |
| 20260505165004 | 65 | 360 | 2.6 | 13.0 | 0.00 | 0.00 | 0.00 | 37 | 1013.9 |
| 20260505164544 | 64 | 360 | 5.2 | 10.4 | 0.00 | 0.00 | 0.00 | 39 | 1013.9 |
| 20260505164018 | 64 | 360 | 2.6 | 9.6 | 0.00 | 0.00 | 0.00 | 39 | 1013.7 |
| 20260505163539 | 63 | 360 | 4.3 | 9.6 | 0.00 | 0.00 | 0.00 | 40 | 1013.5 |
| 20260505163101 | 63 | 360 | 1.7 | 10.4 | 0.00 | 0.00 | 0.00 | 39 | 1013.8 |
| 20260505162554 | 63 | 360 | 5.2 | 10.4 | 0.00 | 0.00 | 0.00 | 40 | 1013.6 |
| 20260505162046 | 62 | 360 | 2.6 | 5.2 | 0.00 | 0.00 | 0.00 | 42 | 1013.6 |
| 20260505161629 | 63 | 360 | 1.7 | 9.6 | 0.00 | 0.00 | 0.00 | 39 | 1013.5 |
| 20260505161112 | 63 | 360 | 5.2 | 9.6 | 0.00 | 0.00 | 0.00 | 40 | 1013.4 |
| 20260505160628 | 62 | 360 | 2.6 | 8.7 | 0.00 | 0.00 | 0.00 | 40 | 1013.7 |
| 20260505153102 | 60 | 360 | 3.5 | 7.8 | 0.00 | 0.00 | 0.00 | 44 | 1013.7 |
| 20260505152559 | 60 | 360 | 2.6 | 5.2 | 0.00 | 0.00 | 0.00 | 41 | 1013.8 |
| 20260505152057 | 60 | 360 | 1.7 | 5.2 | 0.00 | 0.00 | 0.00 | 44 | 1013.7 |
| 20260505151512 | 59 | 119 | 1.7 | 5.2 | 0.00 | 0.00 | 0.00 | 43 | 1013.6 |
| 20260505151012 | 59 | 34 | 1.7 | 9.6 | 0.00 | 0.00 | 0.00 | 46 | 1013.8 |
| 20260505150528 | 59 | 34 | 3.5 | 9.6 | 0.00 | 0.00 | 0.00 | 44 | 1014.0 |
| 20260505140553 | 59 | 360 | 5.2 | 11.3 | 0.00 | 0.00 | 0.00 | 42 | 1013.8 |
| 20260505124504 | 52 | 360 | 2.6 | 7.8 | 0.00 | 0.00 | 0.00 | 52 | 1013.2 |
| 20260505124024 | 52 | 360 | 0.9 | 4.3 | 0.00 | 0.00 | 0.00 | 56 | 1013.3 |
| 20260505123611 | 52 | 338 | 1.7 | 4.3 | 0.00 | 0.00 | 0.00 | 54 | 1013.1 |
| 20260505123042 | 51 | 360 | 0.9 | 3.5 | 0.00 | 0.00 | 0.00 | 56 | 1013.1 |
| 20260505122545 | 51 | 360 | 1.7 | 5.2 | 0.00 | 0.00 | 0.00 | 56 | 1013.1 |
| 20260505122046 | 50 | 360 | 1.7 | 5.2 | 0.00 | 0.00 | 0.00 | 57 | 1013.1 |
| 20260505121643 | 49 | 360 | 0.9 | 8.7 | 0.00 | 0.00 | 0.00 | 58 | 1013.1 |
| 20260505121129 | 49 | 360 | 3.5 | 8.7 | 0.00 | 0.00 | 0.00 | 60 | 1013.1 |
| 20260505120604 | 48 | 360 | 0.9 | 3.5 | 0.00 | 0.00 | 0.00 | 62 | 1013.1 |
| 20260505120056 | 48 | 360 | 1.7 | 3.5 | 0.00 | 0.00 | 0.00 | 62 | 1013.0 |
| 20260505115501 | 48 | 360 | 0.9 | 3.5 | 0.00 | 0.00 | 0.00 | 61 | 1013.0 |
| 20260505115103 | 48 | 360 | 0.9 | 3.5 | 0.00 | 0.00 | 0.00 | 62 | 1013.0 |
| 20260505114507 | 48 | 350 | 0.9 | 1.7 | 0.00 | 0.00 | 0.00 | 62 | 1012.9 |
| 20260505114002 | 48 | 351 | 0.0 | 1.7 | 0.00 | 0.00 | 0.00 | 61 | 1012.9 |
| 20260505113502 | 48 | 360 | 0.9 | 2.6 | 0.00 | 0.00 | 0.00 | 60 | 1012.9 |
| 20260505113047 | 49 | 351 | 1.7 | 5.2 | 0.00 | 0.00 | 0.00 | 60 | 1012.8 |
| 20260505112547 | 49 | 305 | 0.9 | 5.2 | 0.00 | 0.00 | 0.00 | 58 | 1012.9 |
| 20260505112051 | 49 | 277 | 0.9 | 3.5 | 0.00 | 0.00 | 0.00 | 59 | 1012.9 |
| 20260505111503 | 49 | 321 | 0.0 | 4.3 | 0.00 | 0.00 | 0.00 | 58 | 1012.8 |
| 20260505111004 | 49 | 344 | 1.7 | 3.5 | 0.00 | 0.00 | 0.00 | 58 | 1012.6 |
| 20260505110613 | 49 | 21 | 0.9 | 3.5 | 0.00 | 0.00 | 0.00 | 58 | 1012.8 |
| 20260505102049 | 49 | 360 | 0.0 | 2.6 | 0.00 | 0.00 | 0.00 | 58 | 1012.9 |
| 20260505101511 | 49 | 360 | 0.0 | 1.7 | 0.00 | 0.00 | 0.00 | 58 | 1012.9 |
| 20260505101107 | 49 | 360 | 0.0 | 1.7 | 0.00 | 0.00 | 0.00 | 58 | 1012.9 |
| 20260505100602 | 49 | 360 | 0.9 | 1.7 | 0.00 | 0.00 | 0.00 | 57 | 1012.8 |
| 20260505100037 | 50 | 360 | 0.0 | 2.6 | 0.00 | 0.00 | 0.00 | 57 | 1012.9 |
| 20260505095542 | 50 | 360 | 0.9 | 2.6 | 0.00 | 0.00 | 0.00 | 56 | 1012.7 |
| 20260505095148 | 50 | 360 | 0.9 | 4.3 | 0.00 | 0.00 | 0.00 | 57 | 1012.8 |
| 20260505094559 | 50 | 30 | 0.9 | 5.2 | 0.00 | 0.00 | 0.00 | 55 | 1012.8 |
| 20260505094055 | 50 | 325 | 1.7 | 5.2 | 0.00 | 0.00 | 0.00 | 55 | 1012.8 |
| 20260505093552 | 50 | 360 | 1.7 | 5.2 | 0.00 | 0.00 | 0.00 | 55 | 1012.9 |
| 20260505093007 | 50 | 360 | 1.7 | 5.2 | 0.00 | 0.00 | 0.00 | 54 | 1012.9 |
| 20260505092508 | 50 | 360 | 0.9 | 4.3 | 0.00 | 0.00 | 0.00 | 56 | 1012.9 |
| 20260505092024 | 50 | 360 | 0.0 | 4.3 | 0.00 | 0.00 | 0.00 | 54 | 1012.9 |
| 20260505091545 | 50 | 360 | 1.7 | 7.0 | 0.00 | 0.00 | 0.00 | 55 | 1013.0 |
| 20260505091046 | 50 | 42 | 3.5 | 7.0 | 0.00 | 0.00 | 0.00 | 54 | 1013.0 |
| 20260505090543 | 50 | 38 | 0.9 | 3.5 | 0.00 | 0.00 | 0.00 | 56 | 1013.0 |
| 20260505090005 | 50 | 36 | 1.7 | 5.2 | 0.00 | 0.00 | 0.00 | 56 | 1013.0 |
| 20260505085503 | 50 | 360 | 1.7 | 4.3 | 0.00 | 0.00 | 0.00 | 58 | 1013.2 |
| 20260505085107 | 50 | 41 | 1.7 | 3.5 | 0.00 | 0.00 | 0.00 | 57 | 1013.1 |
| 20260505084539 | 50 | 9 | 1.7 | 3.5 | 0.00 | 0.00 | 0.00 | 57 | 1013.1 |
| 20260505084041 | 50 | 9 | 0.9 | 2.6 | 0.00 | 0.00 | 0.00 | 58 | 1013.2 |
| 20260505083543 | 50 | 9 | 0.0 | 3.5 | 0.00 | 0.00 | 0.00 | 58 | 1013.0 |
| 20260505083105 | 50 | 9 | 0.9 | 3.5 | 0.00 | 0.00 | 0.00 | 55 | 1012.9 |
| 20260505082557 | 50 | 351 | 1.7 | 3.5 | 0.00 | 0.00 | 0.00 | 55 | 1013.0 |
| 20260505082053 | 51 | 351 | 0.9 | 3.5 | 0.00 | 0.00 | 0.00 | 56 | 1013.1 |
| 20260505081510 | 51 | 18 | 1.7 | 9.6 | 0.00 | 0.00 | 0.00 | 55 | 1013.0 |
| 20260505081004 | 51 | 325 | 1.7 | 9.6 | 0.00 | 0.00 | 0.00 | 54 | 1013.1 |
| 20260505080504 | 51 | 360 | 0.9 | 4.3 | 0.00 | 0.00 | 0.00 | 55 | 1013.0 |
| 20260505080047 | 51 | 360 | 0.9 | 4.3 | 0.00 | 0.00 | 0.00 | 55 | 1013.1 |
| 20260505075551 | 51 | 360 | 1.7 | 7.0 | 0.00 | 0.00 | 0.00 | 54 | 1013.1 |
| 20260505075051 | 51 | 360 | 0.0 | 3.5 | 0.00 | 0.00 | 0.00 | 55 | 1013.0 |
| 20260505074605 | 51 | 351 | 0.0 | 7.8 | 0.00 | 0.00 | 0.00 | 54 | 1013.1 |
| 20260505074107 | 51 | 351 | 1.7 | 5.2 | 0.00 | 0.00 | 0.00 | 54 | 1013.0 |
| 20260505073607 | 51 | 327 | 1.7 | 4.3 | 0.00 | 0.00 | 0.00 | 53 | 1013.1 |
| 20260505073054 | 51 | 360 | 1.7 | 4.3 | 0.00 | 0.00 | 0.00 | 54 | 1013.1 |
| 20260505072541 | 51 | 323 | 0.9 | 7.8 | 0.00 | 0.00 | 0.00 | 53 | 1013.1 |
| 20260505072039 | 51 | 360 | 1.7 | 7.8 | 0.00 | 0.00 | 0.00 | 54 | 1013.0 |
| 20260505071603 | 51 | 360 | 0.9 | 9.6 | 0.00 | 0.00 | 0.00 | 54 | 1013.1 |
| 20260505071055 | 51 | 360 | 4.3 | 9.6 | 0.00 | 0.00 | 0.00 | 54 | 1013.2 |
| 20260505070551 | 52 | 11 | 0.9 | 5.2 | 0.00 | 0.00 | 0.00 | 54 | 1013.0 |
| 20260505070001 | 52 | 45 | 0.0 | 5.2 | 0.00 | 0.00 | 0.00 | 52 | 1013.1 |
| 20260505065606 | 52 | 73 | 1.7 | 3.5 | 0.00 | 0.00 | 0.00 | 52 | 1013.1 |
| 20260505065107 | 52 | 360 | 0.0 | 4.3 | 0.00 | 0.00 | 0.00 | 52 | 1013.0 |
| 20260505064545 | 52 | 17 | 0.9 | 5.2 | 0.00 | 0.00 | 0.00 | 52 | 1013.1 |
| 20260505064041 | 52 | 347 | 1.7 | 5.2 | 0.00 | 0.00 | 0.00 | 51 | 1013.2 |
| 20260505063541 | 53 | 22 | 1.7 | 5.2 | 0.00 | 0.00 | 0.00 | 51 | 1013.2 |
| 20260505063158 | 53 | 340 | 0.9 | 7.8 | 0.00 | 0.00 | 0.00 | 51 | 1013.2 |
| 20260505062626 | 53 | 24 | 2.6 | 7.8 | 0.00 | 0.00 | 0.00 | 51 | 1013.3 |
| 20260505062058 | 53 | 304 | 1.7 | 7.0 | 0.00 | 0.00 | 0.00 | 51 | 1013.4 |
| 20260505061540 | 53 | 28 | 1.7 | 6.1 | 0.00 | 0.00 | 0.00 | 51 | 1013.5 |
| 20260505061007 | 53 | 59 | 1.7 | 7.0 | 0.00 | 0.00 | 0.00 | 50 | 1013.5 |
| 20260505060507 | 53 | 309 | 2.6 | 7.0 | 0.00 | 0.00 | 0.00 | 50 | 1013.6 |
| 20260505060045 | 53 | 355 | 2.6 | 7.0 | 0.00 | 0.00 | 0.00 | 50 | 1013.6 |
| 20260505055549 | 53 | 325 | 2.6 | 5.2 | 0.00 | 0.00 | 0.00 | 50 | 1013.7 |
| 20260505055047 | 53 | 11 | 1.7 | 5.2 | 0.00 | 0.00 | 0.00 | 50 | 1013.7 |
| 20260505054542 | 53 | 360 | 1.7 | 7.0 | 0.00 | 0.00 | 0.00 | 50 | 1013.8 |
| 20260505054109 | 53 | 360 | 2.6 | 7.0 | 0.00 | 0.00 | 0.00 | 50 | 1013.9 |
| 20260505053601 | 53 | 296 | 0.9 | 5.2 | 0.00 | 0.00 | 0.00 | 50 | 1013.9 |
| 20260505053006 | 54 | 49 | 0.0 | 13.0 | 0.00 | 0.00 | 0.00 | 50 | 1013.8 |
| 20260505052501 | 54 | 332 | 1.7 | 5.2 | 0.00 | 0.00 | 0.00 | 49 | 1013.9 |
| 20260505052006 | 54 | 360 | 1.7 | 5.2 | 0.00 | 0.00 | 0.00 | 50 | 1013.7 |
| 20260505051543 | 54 | 351 | 1.7 | 5.2 | 0.00 | 0.00 | 0.00 | 50 | 1013.8 |
| 20260505051039 | 54 | 319 | 0.9 | 4.3 | 0.00 | 0.00 | 0.00 | 49 | 1013.8 |
| 20260505050542 | 54 | 9 | 0.9 | 8.7 | 0.00 | 0.00 | 0.00 | 49 | 1013.7 |
| 20260505050105 | 54 | 313 | 3.5 | 8.7 | 0.00 | 0.00 | 0.00 | 49 | 1013.8 |
| 20260505041601 | 54 | 360 | 2.6 | 7.0 | 0.00 | 0.00 | 0.00 | 49 | 1014.0 |
| 20260505041051 | 55 | 323 | 2.6 | 8.7 | 0.00 | 0.00 | 0.00 | 48 | 1013.9 |
| 20260505040551 | 55 | 346 | 2.6 | 10.4 | 0.00 | 0.00 | 0.00 | 48 | 1014.0 |
| 20260505040150 | 55 | 30 | 3.5 | 10.4 | 0.00 | 0.00 | 0.00 | 48 | 1014.2 |
| 20260505035603 | 55 | 26 | 1.7 | 7.8 | 0.00 | 0.00 | 0.00 | 48 | 1014.1 |
| 20260505035058 | 55 | 145 | 3.5 | 13.9 | 0.00 | 0.00 | 0.00 | 49 | 1014.2 |
| 20260505034001 | 55 | 57 | 4.3 | 8.7 | 0.00 | 0.00 | 0.00 | 49 | 1014.2 |
| 20260505033502 | 55 | 320 | 0.9 | 13.0 | 0.00 | 0.00 | 0.00 | 49 | 1014.3 |
| 20260505033035 | 55 | 319 | 6.1 | 13.0 | 0.00 | 0.00 | 0.00 | 50 | 1014.3 |
| 20260505032516 | 55 | 50 | 3.5 | 10.4 | 0.00 | 0.00 | 0.00 | 50 | 1014.4 |
| 20260505032035 | 55 | 49 | 3.5 | 10.4 | 0.00 | 0.00 | 0.00 | 50 | 1014.4 |
| 20260505031610 | 55 | 9 | 1.7 | 7.0 | 0.00 | 0.00 | 0.00 | 50 | 1014.4 |
| 20260505031059 | 55 | 9 | 2.6 | 7.0 | 0.00 | 0.00 | 0.00 | 50 | 1014.4 |
| 20260505030622 | 55 | 286 | 2.6 | 7.8 | 0.00 | 0.00 | 0.00 | 51 | 1014.5 |
| 20260505030012 | 55 | 9 | 1.7 | 7.8 | 0.00 | 0.00 | 0.00 | 50 | 1014.5 |
| 20260505025527 | 55 | 71 | 1.7 | 7.8 | 0.00 | 0.00 | 0.00 | 50 | 1014.7 |
| 20260505025027 | 55 | 38 | 3.5 | 9.6 | 0.00 | 0.00 | 0.00 | 50 | 1014.6 |
| 20260505024549 | 55 | 90 | 2.6 | 9.6 | 0.00 | 0.00 | 0.00 | 50 | 1014.6 |
| 20260505024159 | 55 | 14 | 1.7 | 7.0 | 0.00 | 0.00 | 0.00 | 50 | 1014.5 |
| 20260505023543 | 55 | 58 | 1.7 | 6.1 | 0.00 | 0.00 | 0.00 | 50 | 1014.7 |
| 20260505023122 | 56 | 50 | 1.7 | 6.1 | 0.00 | 0.00 | 0.00 | 50 | 1014.6 |
| 20260505022606 | 56 | 46 | 1.7 | 5.2 | 0.00 | 0.00 | 0.00 | 49 | 1014.7 |
| 20260505022104 | 56 | 76 | 1.7 | 7.8 | 0.00 | 0.00 | 0.00 | 49 | 1014.6 |
| 20260505021539 | 56 | 36 | 2.6 | 7.8 | 0.00 | 0.00 | 0.00 | 49 | 1014.6 |
| 20260505021040 | 56 | 26 | 1.7 | 12.2 | 0.00 | 0.00 | 0.00 | 49 | 1014.6 |
| 20260505020543 | 56 | 32 | 4.3 | 12.2 | 0.00 | 0.00 | 0.00 | 50 | 1014.6 |
| 20260505020105 | 56 | 31 | 1.7 | 5.2 | 0.00 | 0.00 | 0.00 | 50 | 1014.7 |
| 20260505015559 | 56 | 77 | 1.7 | 5.2 | 0.00 | 0.00 | 0.00 | 50 | 1014.6 |
| 20260505015059 | 56 | 53 | 0.0 | 4.3 | 0.00 | 0.00 | 0.00 | 51 | 1014.6 |
| 20260505014505 | 56 | 49 | 0.9 | 4.3 | 0.00 | 0.00 | 0.00 | 50 | 1014.4 |
| 20260505014112 | 56 | 28 | 0.9 | 4.3 | 0.00 | 0.00 | 0.00 | 51 | 1014.4 |
| 20260505013608 | 56 | 18 | 1.7 | 4.3 | 0.00 | 0.00 | 0.00 | 50 | 1014.5 |
| 20260505013035 | 56 | 41 | 1.7 | 5.2 | 0.00 | 0.00 | 0.00 | 50 | 1014.4 |
| 20260505012538 | 56 | 332 | 0.0 | 5.2 | 0.00 | 0.00 | 0.00 | 50 | 1014.4 |
| 20260505012039 | 57 | 37 | 2.6 | 11.3 | 0.00 | 0.00 | 0.00 | 50 | 1014.4 |
| 20260505011555 | 57 | 44 | 3.5 | 11.3 | 0.00 | 0.00 | 0.00 | 50 | 1014.6 |
| 20260505011048 | 57 | 346 | 2.6 | 8.7 | 0.00 | 0.00 | 0.00 | 50 | 1014.5 |
| 20260505010548 | 57 | 55 | 2.6 | 6.1 | 0.00 | 0.00 | 0.00 | 50 | 1014.3 |
| 20260505010002 | 57 | 24 | 1.7 | 4.3 | 0.00 | 0.00 | 0.00 | 50 | 1014.3 |
| 20260505005632 | 57 | 18 | 1.7 | 3.5 | 0.00 | 0.00 | 0.00 | 50 | 1014.3 |
| 20260505005109 | 57 | 5 | 0.9 | 3.5 | 0.00 | 0.00 | 0.00 | 50 | 1014.3 |
| 20260505004547 | 58 | 35 | 0.9 | 4.3 | 0.00 | 0.00 | 0.00 | 50 | 1014.3 |
| 20260505004142 | 58 | 40 | 1.7 | 4.3 | 0.00 | 0.00 | 0.00 | 50 | 1014.2 |
| 20260505003509 | 58 | 25 | 0.9 | 4.3 | 0.00 | 0.00 | 0.00 | 49 | 1014.2 |
| 20260505003053 | 58 | 30 | 1.7 | 5.2 | 0.00 | 0.00 | 0.00 | 49 | 1014.3 |
| 20260505002559 | 59 | 355 | 2.6 | 5.2 | 0.00 | 0.00 | 0.00 | 49 | 1014.2 |
| 20260505002051 | 59 | 360 | 0.0 | 4.3 | 0.00 | 0.00 | 0.00 | 50 | 1014.2 |
| 20260505001638 | 59 | 360 | 1.7 | 4.3 | 0.00 | 0.00 | 0.00 | 49 | 1014.0 |
| 20260505001125 | 59 | 360 | 1.7 | 8.7 | 0.00 | 0.00 | 0.00 | 49 | 1014.1 |
| 20260505000608 | 59 | 360 | 3.5 | 8.7 | 0.00 | 0.00 | 0.00 | 49 | 1014.0 |
| 20260505000054 | 59 | 360 | 1.7 | 7.8 | 0.00 | 0.00 | 0.00 | 49 | 1013.9 |
| 20260504235537 | 59 | 360 | 1.7 | 4.3 | 0.00 | 0.00 | 0.00 | 49 | 1014.0 |
| 20260504235039 | 60 | 360 | 1.7 | 5.2 | 0.00 | 0.00 | 0.00 | 50 | 1013.9 |
| 20260504234559 | 60 | 360 | 2.6 | 5.2 | 0.00 | 0.00 | 0.00 | 49 | 1013.9 |
| 20260504234100 | 60 | 360 | 0.9 | 7.0 | 0.00 | 0.00 | 0.00 | 49 | 1013.8 |
| 20260504233600 | 60 | 360 | 0.9 | 7.8 | 0.00 | 0.00 | 0.00 | 48 | 1013.9 |
| 20260504233036 | 60 | 360 | 2.6 | 7.8 | 0.00 | 0.00 | 0.00 | 47 | 1014.0 |
| 20260504232539 | 61 | 360 | 0.0 | 7.8 | 0.00 | 0.00 | 0.00 | 47 | 1014.0 |
| 20260504232041 | 61 | 360 | 2.6 | 5.2 | 0.00 | 0.00 | 0.00 | 46 | 1013.9 |
| 20260504231559 | 61 | 360 | 1.7 | 5.2 | 0.00 | 0.00 | 0.00 | 46 | 1014.0 |
| 20260504231052 | 61 | 360 | 0.0 | 3.5 | 0.00 | 0.00 | 0.00 | 47 | 1013.8 |
| 20260504230548 | 61 | 360 | 0.9 | 7.8 | 0.00 | 0.00 | 0.00 | 46 | 1013.9 |
| 20260504230002 | 62 | 360 | 1.7 | 7.8 | 0.00 | 0.00 | 0.00 | 47 | 1013.9 |
| 20260504225500 | 62 | 360 | 1.7 | 7.0 | 0.00 | 0.00 | 0.00 | 46 | 1014.0 |
| 20260504225126 | 62 | 360 | 0.9 | 7.8 | 0.00 | 0.00 | 0.00 | 45 | 1014.1 |
| 20260504224540 | 62 | 360 | 3.5 | 7.8 | 0.00 | 0.00 | 0.00 | 45 | 1014.0 |
| 20260504224045 | 62 | 360 | 0.9 | 8.7 | 0.00 | 0.00 | 0.00 | 44 | 1014.1 |
| 20260504223635 | 62 | 360 | 2.6 | 8.7 | 0.00 | 0.00 | 0.00 | 45 | 1014.1 |
| 20260504223108 | 63 | 360 | 4.3 | 7.8 | 0.00 | 0.00 | 0.00 | 43 | 1014.1 |
| 20260504222603 | 63 | 360 | 1.7 | 7.0 | 0.00 | 0.00 | 0.00 | 44 | 1014.1 |
| 20260504222056 | 63 | 360 | 2.6 | 7.0 | 0.00 | 0.00 | 0.00 | 45 | 1014.2 |
| 20260504221509 | 63 | 360 | 1.7 | 8.7 | 0.00 | 0.00 | 0.00 | 44 | 1014.0 |
| 20260504221000 | 63 | 360 | 1.7 | 7.8 | 0.00 | 0.00 | 0.00 | 44 | 1014.1 |
| 20260504220606 | 64 | 360 | 0.9 | 7.8 | 0.00 | 0.00 | 0.00 | 44 | 1014.1 |
| 20260504220034 | 64 | 360 | 2.6 | 10.4 | 0.00 | 0.00 | 0.00 | 39 | 1013.9 |
| 20260504215535 | 64 | 360 | 5.2 | 10.4 | 0.00 | 0.00 | 0.00 | 40 | 1014.0 |
| 20260504215016 | 64 | 360 | 0.9 | 8.7 | 0.00 | 0.00 | 0.00 | 38 | 1014.0 |
| 20260504214602 | 64 | 360 | 1.7 | 8.7 | 0.00 | 0.00 | 0.00 | 38 | 1013.9 |
| 20260504214100 | 64 | 360 | 1.7 | 7.0 | 0.00 | 0.00 | 0.00 | 38 | 1013.9 |
| 20260504213550 | 64 | 360 | 2.6 | 7.0 | 0.00 | 0.00 | 0.00 | 36 | 1013.8 |
| 20260504213139 | 64 | 360 | 2.6 | 8.7 | 0.00 | 0.00 | 0.00 | 37 | 1013.9 |
| 20260504212606 | 64 | 360 | 2.6 | 8.7 | 0.00 | 0.00 | 0.00 | 38 | 1013.9 |
| 20260504212104 | 65 | 360 | 2.6 | 8.7 | 0.00 | 0.00 | 0.00 | 38 | 1014.0 |
| 20260504211508 | 65 | 360 | 2.6 | 7.8 | 0.00 | 0.00 | 0.00 | 35 | 1013.9 |
| 20260504211013 | 65 | 360 | 0.9 | 3.5 | 0.00 | 0.00 | 0.00 | 35 | 1013.9 |
| 20260504210508 | 65 | 360 | 0.9 | 3.5 | 0.00 | 0.00 | 0.00 | 35 | 1014.0 |
| 20260504210053 | 65 | 360 | 0.9 | 3.5 | 0.00 | 0.00 | 0.00 | 36 | 1013.9 |
| 20260504205554 | 65 | 360 | 0.9 | 3.5 | 0.00 | 0.00 | 0.00 | 34 | 1014.0 |
| 20260504205053 | 64 | 360 | 0.9 | 7.0 | 0.00 | 0.00 | 0.00 | 36 | 1014.1 |
| 20260504204504 | 65 | 360 | 3.5 | 7.0 | 0.00 | 0.00 | 0.00 | 34 | 1014.3 |
| 20260504204106 | 65 | 360 | 1.7 | 7.0 | 0.00 | 0.00 | 0.00 | 32 | 1014.0 |
| 20260504203038 | 65 | 360 | 3.5 | 9.6 | 0.00 | 0.00 | 0.00 | 32 | 1014.3 |
| 20260504202538 | 64 | 360 | 1.7 | 12.2 | 0.00 | 0.00 | 0.00 | 32 | 1014.3 |
| 20260504202034 | 65 | 360 | 5.2 | 12.2 | 0.00 | 0.00 | 0.00 | 35 | 1014.2 |
| 20260504201550 | 65 | 360 | 1.7 | 9.6 | 0.00 | 0.00 | 0.00 | 29 | 1014.4 |
| 20260504201046 | 65 | 10 | 3.5 | 9.6 | 0.00 | 0.00 | 0.00 | 30 | 1014.5 |
| 20260504200546 | 66 | 236 | 1.7 | 7.0 | 0.00 | 0.00 | 0.00 | 34 | 1014.7 |
| 20260504200140 | 65 | 60 | 2.6 | 11.3 | 0.00 | 0.00 | 0.00 | 30 | 1014.4 |
| 20260504195630 | 66 | 69 | 1.7 | 11.3 | 0.00 | 0.00 | 0.00 | 29 | 1014.7 |
| 20260504195108 | 66 | 105 | 1.7 | 7.8 | 0.00 | 0.00 | 0.00 | 26 | 1014.7 |
| 20260504194536 | 67 | 281 | 1.7 | 13.0 | 0.00 | 0.00 | 0.00 | 24 | 1014.8 |
| 20260504194037 | 68 | 189 | 1.7 | 13.0 | 0.00 | 0.00 | 0.00 | 25 | 1014.9 |
| 20260504193539 | 67 | 360 | 1.7 | 7.8 | 0.00 | 0.00 | 0.00 | 24 | 1014.9 |
| 20260504192600 | 67 | 360 | 1.7 | 7.8 | 0.00 | 0.00 | 0.00 | 24 | 1015.1 |
| 20260504192059 | 67 | 360 | 2.6 | 7.8 | 0.00 | 0.00 | 0.00 | 24 | 1015.2 |